This is the latest recevied weather packets stored in our database for station/object KF4UQS-14. If no packets are shown the sender has not sent any weather packets the latest 10 day(s).
| Time | Temp. | Humidity | Pressure | Rain* | Wind** | Luminosity | Snow |
|---|---|---|---|---|---|---|---|
| 1778290964 | 13.33° C | 71% | 1016.4 hPa | 0 mm | - | 0 W/m² | - |
| 1778290660 | 12.78° C | 72% | 1016.5 hPa | 0 mm | - | 0 W/m² | - |
| 1778290356 | 13.33° C | 72% | 1016.3 hPa | 0 mm | - | 0 W/m² | - |
| 1778290053 | 13.33° C | 75% | 1016.3 hPa | 0 mm | - | 0 W/m² | - |
| 1778289750 | 13.33° C | 71% | 1016.3 hPa | 0 mm | - | 0 W/m² | - |
| 1778289447 | 13.33° C | 72% | 1016.2 hPa | 0 mm | - | 0 W/m² | - |
| 1778289145 | 13.33° C | 72% | 1016.2 hPa | 0 mm | - | 0 W/m² | - |
| 1778288843 | 13.33° C | 72% | 1016.1 hPa | 0 mm | - | 0 W/m² | - |
| 1778288539 | 13.89° C | 72% | 1016.1 hPa | 0 mm | - | 0 W/m² | - |
| 1778288236 | 13.89° C | 69% | 1016.2 hPa | 0 mm | - | 0 W/m² | - |
| 1778287933 | 13.89° C | 72% | 1016.1 hPa | 0 mm | - | 0 W/m² | - |
| 1778287628 | 13.89° C | 73% | 1015.9 hPa | 0 mm | - | 0 W/m² | - |
| 1778287326 | 13.89° C | 74% | 1015.9 hPa | 0 mm | - | 0 W/m² | - |
| 1778287024 | 13.89° C | 73% | 1016 hPa | 0 mm | - | 0 W/m² | - |
| 1778286721 | 13.89° C | 73% | 1016.2 hPa | 0 mm | - | 0 W/m² | - |
| 1778286418 | 13.33° C | 74% | 1015.8 hPa | 0 mm | - | 0 W/m² | - |
| 1778286116 | 13.89° C | 73% | 1015.9 hPa | 0 mm | - | 0 W/m² | - |
| 1778285813 | 13.89° C | 72% | 1015.6 hPa | 0 mm | - | 0 W/m² | - |
| 1778285509 | 14.44° C | 69% | 1015.7 hPa | 0 mm | - | 0 W/m² | - |
| 1778285207 | 14.44° C | 69% | 1015.5 hPa | 0 mm | - | 1 W/m² | - |
| 1778284904 | 14.44° C | 68% | 1015.5 hPa | 0 mm | - | 2 W/m² | - |
| 1778284601 | 14.44° C | 67% | 1015.6 hPa | 0 mm | - | 4 W/m² | - |
| 1778284297 | 15° C | 67% | 1015.4 hPa | 0 mm | - | 7 W/m² | - |
| 1778283995 | 15° C | 67% | 1015.4 hPa | 0 mm | - | 10 W/m² | - |
| 1778283691 | 15° C | 65% | 1015.6 hPa | 0 mm | - | 13 W/m² | - |
* Rain latest hour (hover to see other rain measurements)
** Current wind speed in m/s (hover to see current wind gust speed)